Location: Courçay
(47.2523°N, 0.8761°E)
Time: 21:23:24
(UTC+00:00)

Cosmos 1400 Rocket - Pass Details

Date: 18 November 2025
Orbit: 476 x 514 km, 81.1° (Epoch: 10 December)

Event Time Altitude Azimuth Distance (km) Brightness Sun altitude
Rises 17:04:13 0° 146° (SSE) 2,618 6.1 -8.0°
Reaches altitude 10° 17:07:05 10° 123° (ESE) 1,733 5.0 -8.5°
Maximum altitude 17:09:16 15° 88° (E) 1,453 4.4 -8.8°
Enters shadow 17:10:54 12° 60° (ENE) 1,615 4.6 -9.1°
